Zurück zum Katalog

SCOUT B DEB

LostUNKNOWN
NORAD 29167·DEBRIS·🇺🇸 United States

Gestartet Aug 10, 1965 von Wallops Flight Facility

Loading…

Nächste Überflüge (nächste 24 Stunden)

TLE

VeraltetSource: Space-Track

Epoche: Aug 20, 2021, 01:42 UTC

1 29167U 65063R   21232.07119748 -.00000285  00000-0 -17384-2 0  9994
2 29167  69.2379 161.0900 0721641 343.3848  28.2122 11.88382513601176

Verfolge SCOUT B DEB in Echtzeit mit AllMySat

Download on the App Store